Location: Prairie View Elementary School
(39.8322°N, 99.5698°W)
Time: 20:15:47
(UTC+00:00)

Okean O Rocket - Pass Details

Date: 08 December 2019
Orbit: 624 x 644 km, 98.2° (Epoch: 18 January)

Event Time Altitude Azimuth Distance (km) Brightness Sun altitude
Rises 11:41:50 0° 21° (NNE) 2,926 5.2 -23.3°
Reaches altitude 10° 11:44:10 10° 30° (NNE) 2,017 4.4 -22.8°
Maximum altitude 11:48:15 37° 98° (E) 980 3.1 -22.1°
Drops below altitude 10° 11:52:20 10° 167° (SSE) 2,014 4.5 -21.3°
Sets 11:54:39 0° 175° (S) 2,921 5.2 -20.9°
